Location: Bednik
(45.3500°N, 16.3833°E)
Time: 14:55:46
(UTC+00:00)

Cosmos 1992 Rocket - Pass Details

Date: 08 August 2020
Orbit: 759 x 765 km, 74.0° (Epoch: 19 September)

Event Time Altitude Azimuth Distance (km) Brightness Sun altitude
Rises 18:32:18 0° 339° (NNW) 3,243 8.1 -4.1°
Reaches altitude 10° 18:34:41 10° 340° (NNW) 2,312 7.3 -4.4°
Maximum altitude 18:39:57 82° 69° (ENE) 778 4.0 -5.2°
Drops below altitude 10° 18:45:09 10° 157° (SSE) 2,292 6.0 -6.0°
Enters shadow 18:47:25 - 158° (SSE) 3,171 6.7 -6.4°
